[[{"header":{"parameterUnit":"m.s-1","parameterCategory":1,"la1":30.2991,"la2":30.254,"lo1":-89.0895,"lo2":-89.0444,"dy":0.0017,"dx":0.0017,"nx":28,"ny":28,"refTime":"2024-05-16T21:00:00:Z","depth":0,"parameterNumber":2,"parameterNumberName":"U-component_of_WINDS"},"data":[0,0,0,0,0,0,0,0,0,0,0,0,0,0,0,0,0,0,0,0,0,0,0,0,0,0,0,0,0,0,0,0,0,0,0,0,0,0,0,0,0,0,0,0,0,0,0,0,0,0,0,0,0,0,0,0,0,0,0.5415,0.5414,0,0.539,0.539,0.5389,0.5347,0.5346,0.5346,0.5345,0.532,0.532,0.532,0,0,0,0,0,0,0,0,0,0,0,0,0,0.5426,0.5426,0.5415,0.5414,0.5414,0.539,0.539,0.5389,0.5347,0.5346,0.5345,0.5344,0.532,0.532,0.5321,0,0,0,0,0,0,0,0,0,0,0,0,0,0.5413,0.5426,0.5415,0.539,0.5388,0.539,0.539,0.5389,0.5348,0.5346,0.5345,0.5344,0.532,0.532,0.5321,0.5345,0,0,0.5321,0.5321,0,0,0,0,0,0,0,0,0.5414,0.5413,0.5394,0.5392,0.5389,0.537,0.5384,0.5374,0.5348,0.5363,0.5345,0.5343,0.5338,0.5337,0.5335,0.5344,0.5343,0.5321,0.5321,0.5321,0.5321,0,0,0,0,0,0,0,0.5415,0.5413,0.5405,0.5394,0.5391,0.538,0.5377,0.5382,0.5357,0.5361,0.5358,0.5356,0.5336,0.5335,0.5334,0.5343,0.5321,0.5321,0.5321,0.5321,0.537,0.5371,0,0,0,0,0,0,0.5419,0.5414,0.5406,0.5404,0.5399,0.5381,0.5378,0.5378,0.5357,0.5353,0.5357,0.5354,0.5335,0.5334,0.5333,0.5359,0.5321,0.5321,0.5321,0.5369,0.537,0.5372,0,0,0,0,0,0,0.5419,0.5419,0.5407,0.5408,0.5406,0.5382,0.5383,0.5378,0.5376,0.5354,0.5349,0.536,0.5334,0.5333,0.5342,0.5358,0.5321,0.5321,0.5367,0.5369,0.5371,0.5414,0,0,0,0,0,0,0.542,0.5419,0.5428,0.5409,0.5406,0.5417,0.5384,0.5378,0.5376,0.5372,0.5355,0.5351,0.5333,0.5342,0.5342,0.5358,0.5321,0.5366,0.5368,0.537,0.5411,0.5417,0.5422,0,0,0,0,0,0.542,0.5441,0.5429,0.5428,0.5417,0.5418,0.5416,0.5394,0.5378,0.5386,0.5372,0.5352,0.5356,0.5343,0.5343,0.5359,0.5365,0.5368,0.537,0.5408,0.5416,0.5422,0,0,0,0,0,0,0.5463,0.5438,0.5424,0.544,0.5431,0.541,0.5421,0.5403,0.5399,0.5395,0.5369,0.5365,0.5378,0.537,0.5356,0.5381,0.5357,0.536,0.5386,0.5393,0.5399,0.54,0.5322,0,0,0,0,0,0.5475,0.5477,0.5455,0.5471,0.5467,0.5445,0.5444,0.5428,0.5419,0.5415,0.5401,0.5393,0.5392,0.5392,0.5391,0.541,0.5405,0.542,0.5426,0.5431,0.5433,0.5442,0.5448,0.5381,0.5381,0.5381,0,0,0.5498,0.5485,0.5488,0.5479,0.5471,0.5474,0.5442,0.5447,0.5449,0.5416,0.5423,0.5413,0.5402,0.5416,0.5422,0.5409,0.5451,0.5434,0.5438,0.5438,0.5445,0.5452,0.5458,0.5383,0.5382,0.5382,0,0,0.5542,0.5532,0.5544,0.5536,0.5523,0.5508,0.5511,0.5493,0.5485,0.5493,0.5467,0.547,0.5469,0.5462,0.5458,0.5499,0.548,0.5499,0.5528,0.5537,0.5543,0.5547,0.5561,0.5567,0.5502,0.5502,0.5502,0,0.5572,0.5576,0.5552,0.5558,0.5555,0.5525,0.5536,0.553,0.5517,0.5516,0.5502,0.5501,0.5491,0.5503,0.5513,0.5511,0.5513,0.5501,0.5544,0.5548,0.5552,0.5565,0.5571,0.5505,0.5504,0.5504,0.5504,0,0.5614,0.5616,0.5627,0.5616,0.5614,0.5623,0.5601,0.5601,0.5586,0.5572,0.558,0.5567,0.5562,0.5564,0.5549,0.5574,0.5566,0.5549,0.5524,0.5561,0.5573,0.5578,0.5508,0.5507,0.5506,0.5506,0,0,0.5683,0.5658,0.5663,0.5657,0.5641,0.5643,0.565,0.5645,0.5646,0.5639,0.5644,0.5644,0.5628,0.5623,0.5607,0.5615,0.5648,0.5596,0.5596,0.5606,0.5674,0.5687,0.5693,0.5635,0.5636,0.5637,0.5674,0,0.5723,0.5734,0.5713,0.5729,0.5731,0.5703,0.5709,0.57,0.5688,0.5688,0.5674,0.5674,0.5653,0.565,0.5657,0.5642,0.5661,0.5639,0.564,0.564,0.5643,0.5699,0.5713,0.5749,0.5679,0.568,0.568,0,0.5771,0.5766,0.5782,0.5764,0.5764,0.5771,0.5764,0.5764,0.5753,0.5744,0.5739,0.572,0.5726,0.5703,0.571,0.5696,0.5695,0.5688,0.5689,0.5688,0.5662,0.5699,0.576,0.5766,0.5687,0.5687,0.5686,0,0.582,0.5816,0.5825,0.5822,0.5802,0.5806,0.5798,0.5786,0.5784,0.5779,0.5777,0.5772,0.577,0.5766,0.5746,0.5731,0.5756,0.5731,0.5748,0.5749,0.5755,0.5754,0.5816,0.5755,0.5755,0.5755,0.5755,0,0.5866,0.5877,0.5847,0.5853,0.5864,0.584,0.5852,0.5841,0.583,0.5833,0.5808,0.5812,0.5785,0.5786,0.577,0.5779,0.5778,0.577,0.5766,0.5772,0.5773,0.577,0.5767,0.5756,0.5756,0.5756,0.5755,0,0.5922,0.5902,0.591,0.589,0.5886,0.5895,0.5878,0.5882,0.5869,0.5873,0.5872,0.585,0.585,0.5829,0.5825,0.5814,0.5829,0.582,0.5832,0.5829,0.5847,0.5846,0.5909,0.5916,0.5851,0.5852,0.5852,0,0.5952,0.596,0.5941,0.5941,0.5934,0.5935,0.5932,0.5909,0.5908,0.5896,0.5902,0.5899,0.5895,0.5895,0.5879,0.5875,0.5866,0.5888,0.5865,0.5871,0.5865,0.5865,0.5865,0.5893,0.5894,0.5894,0.5895,0,0.6008,0.5998,0.5995,0.599,0.5988,0.5983,0.5976,0.5977,0.5952,0.5952,0.595,0.5948,0.5942,0.594,0.5933,0.5924,0.5905,0.5903,0.5906,0.5912,0.5919,0.5915,0.5845,0.5901,0.59,0.59,0.59,0.5899,0.6051,0.6056,0.6044,0.6042,0.6035,0.6029,0.6032,0.6018,0.6017,0.601,0.5997,0.5998,0.5986,0.5975,0.5968,0.5969,0.5957,0.5963,0.5964,0.5965,0.5968,0.5919,0.5967,0.5967,0.5967,0.5967,0.5967,0,0.6105,0.6096,0.6094,0.6085,0.6084,0.6066,0.6058,0.6058,0.6059,0.605,0.6047,0.6045,0.6043,0.6026,0.6022,0.6025,0.6016,0.6025,0.6024,0.6022,0.5979,0.5976,0.6032,0.6032,0.6032,0.6032,0.6032,0.6032,0.6133,0.6141,0.6129,0.6133,0.6124,0.6124,0.6121,0.6115,0.6108,0.6107,0.6105,0.6094,0.6082,0.6076,0.6073,0.6068,0.6068,0.6079,0.6071,0.6031,0.6025,0.6019,0.6016,0.6079,0.6079,0.6114,0.6114,0.6114]},{"header":{"parameterUnit":"m.s-1","parameterCategory":1,"la1":30.2991,"la2":30.254,"lo1":-89.0895,"lo2":-89.0444,"dy":0.0017,"dx":0.0017,"nx":28,"ny":28,"refTime":"2024-05-16T21:00:00:Z","depth":0,"parameterNumber":3,"parameterNumberName":"V-component_of_WINDS"},"data":[0,0,0,0,0,0,0,0,0,0,0,0,0,0,0,0,0,0,0,0,0,0,0,0,0,0,0,0,0,0,0,0,0,0,0,0,0,0,0,0,0,0,0,0,0,0,0,0,0,0,0,0,0,0,0,0,0,0,5.8659,5.8659,0,5.87,5.87,5.87,5.8624,5.8622,5.8619,5.8617,5.8653,5.8656,5.8659,0,0,0,0,0,0,0,0,0,0,0,0,0,5.8509,5.8512,5.8659,5.8659,5.866,5.8699,5.87,5.8701,5.8625,5.8622,5.8619,5.8616,5.8652,5.8655,5.8659,0,0,0,0,0,0,0,0,0,0,0,0,0,5.8564,5.8513,5.8659,5.8627,5.8625,5.8699,5.87,5.8701,5.8625,5.8622,5.8618,5.8614,5.865,5.8655,5.866,5.8766,0,0,5.8675,5.8677,0,0,0,0,0,0,0,0,5.8561,5.857,5.8631,5.8629,5.8627,5.8653,5.866,5.8722,5.8626,5.8625,5.8617,5.8612,5.8655,5.866,5.8675,5.8767,5.8769,5.8675,5.8678,5.8681,5.8682,0,0,0,0,0,0,0,5.8557,5.8567,5.8675,5.8632,5.8629,5.8608,5.8612,5.8672,5.8661,5.8625,5.8619,5.8626,5.8653,5.8671,5.8676,5.8769,5.8675,5.868,5.8683,5.8685,5.895,5.8954,0,0,0,0,0,0,5.8558,5.8565,5.8673,5.8676,5.8584,5.8614,5.8618,5.8648,5.866,5.8658,5.8629,5.8622,5.8664,5.867,5.8677,5.8801,5.868,5.8685,5.8688,5.8946,5.8951,5.8955,0,0,0,0,0,0,5.8555,5.8569,5.8672,5.8619,5.8631,5.8621,5.8655,5.8651,5.8668,5.8663,5.866,5.8649,5.8662,5.867,5.8744,5.8802,5.8687,5.8692,5.8941,5.8947,5.8953,5.9052,0,0,0,0,0,0,5.8552,5.8568,5.861,5.8621,5.8634,5.8741,5.8659,5.8655,5.8678,5.8669,5.8681,5.8679,5.8659,5.8738,5.8749,5.8806,5.8696,5.8936,5.8944,5.8951,5.9044,5.9061,5.9075,0,0,0,0,0,5.8546,5.8635,5.8612,5.8626,5.8686,5.8745,5.8752,5.8729,5.8683,5.8724,5.872,5.8679,5.8793,5.8746,5.8759,5.8818,5.8932,5.8942,5.895,5.9036,5.9057,5.9075,0,0,0,0,0,0,5.8629,5.8636,5.8611,5.8706,5.8726,5.8732,5.8783,5.8752,5.8783,5.8773,5.8741,5.8744,5.8826,5.8829,5.8776,5.8921,5.8855,5.8867,5.8916,5.8936,5.8951,5.8949,5.87,0,0,0,0,0,5.8658,5.8708,5.871,5.8793,5.8805,5.8792,5.8817,5.8798,5.8816,5.8823,5.8825,5.8842,5.8882,5.8909,5.8945,5.9043,5.9044,5.909,5.9106,5.9119,5.913,5.9182,5.9203,5.8985,5.8985,5.8985,0,0,5.8719,5.8729,5.8762,5.881,5.8823,5.8873,5.88,5.8855,5.8892,5.8831,5.8902,5.8904,5.8921,5.9009,5.9047,5.9014,5.9191,5.9131,5.9142,5.9145,5.9194,5.9214,5.9233,5.8992,5.899,5.8989,0,0,5.8856,5.8869,5.894,5.8955,5.8976,5.8967,5.8985,5.8996,5.8995,5.9067,5.9022,5.9064,5.9133,5.9147,5.9164,5.9306,5.927,5.9319,5.9402,5.9453,5.947,5.9485,5.9536,5.9555,5.9329,5.933,5.933,0,5.8928,5.9004,5.898,5.9039,5.9061,5.9011,5.9081,5.9096,5.9128,5.9143,5.9106,5.9192,5.92,5.929,5.9325,5.934,5.9358,5.9317,5.947,5.9485,5.9498,5.9547,5.9566,5.9336,5.9335,5.9334,5.9334,0,5.9092,5.9145,5.9199,5.9234,5.9262,5.9326,5.931,5.9341,5.9319,5.9314,5.9387,5.9395,5.9432,5.9451,5.943,5.9538,5.9517,5.9476,5.9409,5.9526,5.957,5.9588,5.9344,5.9342,5.934,5.9339,0,0,5.9282,5.9302,5.9323,5.9338,5.9358,5.9397,5.9459,5.9497,5.9524,5.9547,5.9597,5.9658,5.962,5.9638,5.9617,5.9662,5.9775,5.9615,5.9615,5.9645,5.9895,5.9926,5.9948,5.9751,5.9754,5.9757,5.9893,0,5.9418,5.9527,5.9507,5.9612,5.966,5.9613,5.9666,5.9683,5.968,5.9718,5.9713,5.9757,5.9703,5.9714,5.9756,5.9752,5.9825,5.9742,5.9796,5.9798,5.9794,5.9971,6.0005,6.0134,5.9911,5.9914,5.9916,0,5.9591,5.9623,5.9735,5.9747,5.9767,5.9816,5.9849,5.9887,5.9905,5.9899,5.9921,5.9891,5.9951,5.9883,5.9964,5.9909,5.9929,5.993,5.9935,5.9939,5.9864,5.9981,6.0174,6.0194,5.9943,5.9941,5.9939,0,5.9719,5.9789,5.9865,5.9879,5.9896,5.9932,5.994,5.9954,5.9978,6.0007,6.0022,6.0056,6.0075,6.0102,6.0082,6.0035,6.0166,6.0097,6.0162,6.0163,6.0192,6.019,6.0392,6.0205,6.0205,6.0204,6.0204,0,5.9873,5.9943,5.9923,5.997,6.0046,6.0021,6.0097,6.0099,6.0112,6.0157,6.0116,6.0159,6.013,6.017,6.0154,6.0224,6.0232,6.0228,6.0223,6.0232,6.0233,6.0245,6.0236,6.0209,6.0208,6.0207,6.0206,0,6.0029,6.0018,6.0098,6.0108,6.0112,6.0168,6.0175,6.0217,6.0211,6.0268,6.028,6.0269,6.0314,6.0297,6.0343,6.0333,6.0422,6.0405,6.0417,6.0412,6.0479,6.0473,6.0695,6.0723,6.0518,6.052,6.0522,0,6.0128,6.0181,6.0197,6.0226,6.0237,6.0283,6.0308,6.0285,6.0313,6.0337,6.0377,6.0418,6.045,6.0523,6.0518,6.0554,6.0538,6.0613,6.0542,6.055,6.0539,6.0536,6.0541,6.0627,6.063,6.0632,6.0633,0,6.0305,6.0298,6.0337,6.0376,6.0407,6.0435,6.0459,6.0484,6.0462,6.0495,6.0542,6.0567,6.0615,6.0657,6.0688,6.0694,6.066,6.0656,6.0672,6.0682,6.0687,6.0686,6.0456,6.065,6.0649,6.0647,6.0647,6.0646,6.0436,6.0481,6.05,6.0545,6.0561,6.0585,6.0626,6.0625,6.0664,6.0704,6.0687,6.074,6.0755,6.0795,6.0806,6.0846,6.0816,6.0841,6.0847,6.0853,6.0862,6.0681,6.0851,6.0851,6.085,6.085,6.0849,0,6.0612,6.0622,6.0664,6.07,6.0735,6.0702,6.0727,6.0758,6.0806,6.0825,6.0858,6.091,6.095,6.0949,6.0986,6.1018,6.1004,6.1029,6.1026,6.1028,6.0887,6.0869,6.104,6.104,6.104,6.104,6.104,6.104,6.0707,6.0782,6.0777,6.0859,6.0867,6.0921,6.0938,6.0959,6.0974,6.1036,6.107,6.1069,6.1079,6.1117,6.1151,6.115,6.1165,6.1196,6.1189,6.1057,6.1038,6.102,6.1003,6.12,6.12,6.1327,6.1328,6.1329]}]]